This demonstration page uses our WeatherBlox Daily Observations layout. Learn more.

Left ArrowRight Arrow

38.88101, -77.10428

Hourly Observations for July 6, 2021

Temp ( °F °C ) Dew Point ( °F °C ) Humidity (%) Winds ( mph kmh ) Pressure ( in mb ) Visibility ( mi km ) Precip ( " mm )
12:52 am 00:52 Mostly Cloudy 77 25 67 19.4 71 71 SSW 8 13 30.07 1018 10 16 N/A
1:52 am 01:52 Mostly Cloudy 76 24.4 66 18.9 72 72 SSW 9 15 30.06 1018 10 16 N/A
2:52 am 02:52 Mostly Cloudy 75 23.9 67 19.4 76 76 S 7 11 30.06 1018 10 16 N/A
3:52 am 03:52 Mostly Cloudy 75 23.9 67 19.4 76 76 SSW 7 11 30.05 1018 10 16 N/A
4:52 am 04:52 Mostly Cloudy 74 23.3 67 19.4 79 79 S 7 11 30.05 1018 10 16 N/A
5:52 am 05:52 Partly Cloudy 74 23.3 68 20 82 82 SSW 5 7 30.06 1018 10 16 N/A
6:52 am 06:52 Mostly Sunny 75 23.9 69 20.6 82 82 SSW 6 9 30.06 1018 10 16 N/A
7:52 am 07:52 Sunny 77 25 69 20.6 77 77 SSW 3 6 30.08 1019 10 16 N/A
8:52 am 08:52 Sunny 80 26.7 70 21.1 71 71 S 3 6 30.08 1019 10 16 N/A
9:52 am 09:52 Sunny 82 27.8 71 21.7 69 69 S 8 13 30.07 1018 10 16 N/A
10:52 am 10:52 Sunny 85 29.4 72 22.2 65 65 S 10 17 30.07 1018 10 16 N/A
11:52 am 11:52 Mostly Sunny 87 30.6 74 23.3 65 65 S 12 19 30.06 1018 10 16 N/A
12:52 pm 12:52 Mostly Sunny 89 31.7 75 23.9 63 63 S 13 20 30.04 1017 10 16 N/A
1:52 pm 13:52 Mostly Sunny 91 32.8 73 22.8 56 56 S 14 22 30.03 1017 10 16 N/A
2:52 pm 14:52 Mostly Sunny 92 33.3 74 23.3 56 56 S 12 19 30.01 1016 10 16 N/A
3:52 pm 15:52 Mostly Sunny 93 33.9 71 21.7 49 49 S 15 24 29.99 1016 10 16 N/A
4:52 pm 16:52 Mostly Sunny 92 33.3 71 21.7 51 51 SSW 16 26 29.98 1015 10 16 N/A
5:52 pm 17:52 Mostly Sunny 92 33.3 69 20.6 47 47 SW 15 24 29.97 1015 10 16 N/A
6:52 pm 18:52 Mostly Sunny 91 32.8 69 20.6 49 49 SSW 15 24 29.97 1015 10 16 N/A
7:52 pm 19:52 Partly Cloudy 90 32.2 70 21.1 52 52 SSW 13 20 29.97 1015 10 16 N/A
8:52 pm 20:52 Mostly Clear 86 30 75 23.9 70 70 S 8 13 29.97 1015 10 16 N/A
9:52 pm 21:52 Mostly Clear 85 29.4 74 23.3 70 70 S 8 13 30.00 1016 10 16 N/A
10:52 pm 22:52 Mostly Clear 83 28.3 74 23.3 74 74 S 8 13 30.00 1016 10 16 N/A

Powered by AerisWeather